Flag Weather past 2 weeks in Stuttgart, Baden-Württemberg, Germany

Now
37 °F

Passing clouds.


Feels Like: 35 °F
Forecast: 36 / 46 °F
Wind: 3 mph from East

Location: Stuttgart-Echterdingen

Current Time: Nov 28, 2014 at 12:43:42 AM

Latest Report: Nov 28, 2014 at 12:20 AM


Visibility: N/A

Pressure: 29.80 "Hg

Humidity: 93%

Dew point: 36 °F

Location of StuttgartLocation

Historic Weather in Stuttgart — Graph

°F

Stuttgart temperature yesterday

Maximum temperature yesterday: 46 °F (at 12:50 PM)
Minimum temperature yesterday: 39 °F (at 10:20 PM)
Average temperature yesterday: 42 °F

Past Weeks' High & Low Weather Summary

 TemperatureHumidityPressure
High57 °F (Nov 22, 2:20 PM)100% (Nov 12, 11:20 PM)30.30 "Hg (Nov 12, 11:20 PM)
Low34 °F (Nov 20, 2:50 AM)63% (Nov 16, 3:20 PM)29.53 "Hg (Nov 15, 10:20 PM)
Average44 °F91%29.95 "Hg
* Reported Nov 12 11:20 PM — Nov 27 11:20 PM, Stuttgart, Weather by CustomWeather, © 2014

Note: Actual official high and low records may vary slightly from our data, if they occured in-between our weather recording intervals... More about our weather records

Advertising

Stuttgart weather history for previous 24 hours

 ConditionsComfort  
Time TempWeatherWind HumidityBarometerVisibility
11:20 PM
Nov 27
39 °FPartly cloudy.2 mph93%29.80 "HgN/A
10:50 PM39 °FPartly cloudy.3 mph93%29.80 "HgN/A
10:20 PM39 °FPassing clouds.2 mph93%29.80 "HgN/A
9:50 PM41 °FPassing clouds.3 mph87%29.80 "HgN/A
9:20 PM41 °FPassing clouds.3 mph87%29.80 "HgN/A
8:50 PM41 °FPassing clouds.5 mph87%29.80 "HgN/A
8:20 PM41 °FPassing clouds.6 mph87%29.80 "HgN/A
7:50 PM41 °FPassing clouds.6 mph87%29.80 "HgN/A
7:20 PM41 °FPassing clouds.5 mph93%29.80 "HgN/A
6:50 PM41 °FPassing clouds.8 mph87%29.80 "HgN/A
6:20 PM41 °FPassing clouds.6 mph93%29.80 "HgN/A
5:50 PM41 °FPassing clouds.5 mph93%29.77 "HgN/A
5:20 PM41 °FPartly cloudy.3 mph93%29.77 "HgN/A
4:50 PM41 °FPassing clouds.7 mph93%29.77 "HgN/A
4:20 PM43 °FSunny.8 mph87%29.77 "Hg10 mi
3:50 PM43 °FSunny.5 mph87%29.77 "Hg10 mi
3:20 PM45 °FSunny.6 mph87%29.77 "Hg10 mi
2:50 PM45 °FSunny.3 mph87%29.77 "Hg10 mi
2:20 PM45 °FSunny.5 mph87%29.77 "Hg10 mi
1:50 PM45 °FSunny.3 mph87%29.77 "Hg10 mi
1:20 PM46 °FSunny.5 mph82%29.77 "Hg10 mi
12:50 PM46 °FSunny.5 mph82%29.77 "Hg10 mi
12:20 PM45 °FPartly sunny.3 mph81%29.77 "HgN/A
11:50 AM45 °FPartly sunny.2 mph81%29.80 "HgN/A
11:20 AM43 °FBroken clouds.3 mph87%29.80 "HgN/A
10:50 AM43 °FPartly sunny.3 mph87%29.80 "HgN/A
10:20 AM43 °FPartly sunny.3 mph87%29.80 "HgN/A
9:20 AM41 °FPartly sunny.5 mph93%29.80 "HgN/A
8:50 AM41 °FPartly sunny.3 mph93%29.80 "HgN/A
8:20 AM41 °FPartly sunny.3 mph93%29.80 "HgN/A
7:50 AM41 °FPartly sunny.3 mph93%29.80 "HgN/A
7:20 AM41 °FPartly cloudy.6 mph93%29.80 "HgN/A
6:50 AM41 °FPassing clouds.2 mph93%29.80 "HgN/A
6:20 AM41 °FLow clouds.3 mph93%29.80 "HgN/A
5:50 AM41 °FLow clouds.3 mph93%29.83 "HgN/A
5:20 AM41 °FLow clouds.3 mph93%29.83 "HgN/A
4:50 AM41 °FLow clouds.3 mph93%29.83 "HgN/A
4:20 AM41 °FLow clouds.2 mph93%29.83 "HgN/A
3:50 AM41 °FLow clouds.3 mph93%29.86 "HgN/A
3:20 AM41 °FLow clouds.5 mph93%29.86 "HgN/A
2:50 AM41 °FLow clouds.5 mph93%29.86 "HgN/A
2:20 AM41 °FPassing clouds.2 mph93%29.86 "HgN/A
1:50 AM41 °FPassing clouds.2 mph93%29.89 "HgN/A
1:20 AM41 °FPassing clouds.3 mph93%29.89 "HgN/A
12:50 AM41 °FPassing clouds.3 mph93%29.89 "HgN/A
12:20 AM41 °FOvercast.3 mph93%29.89 "HgN/A
Weather by CustomWeather, © 2014

See weather overviewHow to use our weather pages